Location: Frankfurt+(oder)
(51.7984°N, 12.2168°E)
Time: 14:46:48
(UTC+02:00)

ISS - Pass Details

Date: 22 March 2017
Orbit: 399 x 409 km, 51.6° (Epoch: 30 March)

Event Time Altitude Azimuth Distance (km) Brightness Sun altitude
Exits shadow 05:19:18 10° 236° (SW) 1,470 -1.6 -8.5°
Maximum altitude 05:20:02 11° 223° (SW) 1,436 -1.5 -8.4°
Drops below altitude 10° 05:20:48 10° 209° (SSW) 1,472 -1.4 -8.2°
Sets 05:24:21 0° 169° (S) 2,328 0.0 -7.7°
